TimeCDT,TemperatureF,Dew PointF,Humidity,Sea Level PressureIn,VisibilityMPH,Wind Direction,Wind SpeedMPH,Gust SpeedMPH,PrecipitationIn,Events,Conditions,WindDirDegrees,DateUTC
12:15 AM,48.9,48.9,100,30.25,10.0,Calm,Calm,-,N/A,,Clear,0,2011-10-10 05:15:00
12:35 AM,47.8,47.8,100,30.25,10.0,Calm,Calm,-,N/A,,Clear,0,2011-10-10 05:35:00
12:55 AM,47.3,47.3,100,30.25,10.0,Calm,Calm,-,N/A,,Clear,0,2011-10-10 05:55:00
1:15 AM,46.8,46.8,100,30.25,10.0,Calm,Calm,-,N/A,,Clear,0,2011-10-10 06:15:00
1:35 AM,45.9,45.9,100,30.25,3.0,Calm,Calm,-,N/A,,Clear,0,2011-10-10 06:35:00
1:55 AM,45.1,45.1,100,30.25,3.0,Calm,Calm,-,N/A,,Clear,0,2011-10-10 06:55:00
2:15 AM,44.8,44.8,100,30.24,7.0,Calm,Calm,-,N/A,,Clear,0,2011-10-10 07:15:00
2:35 AM,45.1,45.1,100,30.24,10.0,Calm,Calm,-,N/A,,Clear,0,2011-10-10 07:35:00
2:55 AM,45.1,45.1,100,30.23,10.0,Calm,Calm,-,N/A,,Clear,0,2011-10-10 07:55:00
3:35 AM,44.6,44.6,100,30.23,10.0,Calm,Calm,-,N/A,,Clear,0,2011-10-10 08:35:00
3:55 AM,43.9,43.9,100,30.23,10.0,Calm,Calm,-,N/A,,Clear,0,2011-10-10 08:55:00
4:15 AM,43.9,43.9,100,30.23,10.0,Calm,Calm,-,N/A,,Clear,0,2011-10-10 09:15:00
4:35 AM,43.3,43.3,100,30.23,10.0,Calm,Calm,-,N/A,,Clear,0,2011-10-10 09:35:00
4:55 AM,42.6,42.6,100,30.23,10.0,Calm,Calm,-,N/A,,Clear,0,2011-10-10 09:55:00
5:15 AM,42.6,42.6,100,30.23,10.0,Calm,Calm,-,N/A,,Clear,0,2011-10-10 10:15:00
5:35 AM,42.3,42.3,100,30.23,10.0,Calm,Calm,-,N/A,,Clear,0,2011-10-10 10:35:00
5:55 AM,41.7,41.7,100,30.23,10.0,Calm,Calm,-,N/A,,Clear,0,2011-10-10 10:55:00
6:15 AM,41.5,41.5,100,30.23,10.0,Calm,Calm,-,N/A,,Clear,0,2011-10-10 11:15:00
6:35 AM,41.2,41.2,100,30.23,10.0,Calm,Calm,-,N/A,,Clear,0,2011-10-10 11:35:00
6:55 AM,40.8,40.8,100,30.23,10.0,Calm,Calm,-,N/A,,Clear,0,2011-10-10 11:55:00
7:15 AM,40.3,40.3,100,30.23,10.0,Calm,Calm,-,N/A,,Clear,0,2011-10-10 12:15:00
7:35 AM,40.1,40.1,100,30.23,10.0,Calm,Calm,-,N/A,,Clear,0,2011-10-10 12:35:00
8:15 AM,43.5,43.5,100,30.22,10.0,Calm,Calm,-,N/A,,Clear,0,2011-10-10 13:15:00
8:35 AM,47.7,47.7,100,30.22,10.0,Calm,Calm,-,N/A,,Clear,0,2011-10-10 13:35:00
8:55 AM,53.2,51.1,92,30.22,10.0,Calm,Calm,-,N/A,,Clear,0,2011-10-10 13:55:00
9:15 AM,59.0,49.8,72,30.21,10.0,SSE,4.6,-,N/A,,Clear,160,2011-10-10 14:15:00
9:35 AM,61.9,49.6,64,30.20,10.0,SSE,4.6,-,N/A,,Clear,150,2011-10-10 14:35:00
9:55 AM,64.4,50.2,60,30.20,10.0,SSE,4.6,-,N/A,,Clear,160,2011-10-10 14:55:00
10:35 AM,64.2,50.9,62,30.19,10.0,SSE,4.6,-,N/A,,Clear,160,2011-10-10 15:35:00
11:15 AM,68.2,51.4,55,30.17,10.0,South,4.6,-,N/A,,Clear,170,2011-10-10 16:15:00
11:35 AM,70.9,51.4,50,30.16,10.0,ESE,9.2,-,N/A,,Clear,120,2011-10-10 16:35:00
11:55 AM,71.6,50.5,47,30.15,10.0,SSE,6.9,-,N/A,,Clear,150,2011-10-10 16:55:00
12:15 PM,72.0,50.5,47,30.15,10.0,SSE,15.0,20.7,N/A,,Clear,160,2011-10-10 17:15:00
12:35 PM,73.6,48.7,41,30.14,10.0,South,12.7,21.9,N/A,,Clear,170,2011-10-10 17:35:00
12:55 PM,74.1,47.7,39,30.13,10.0,South,9.2,20.7,N/A,,Scattered Clouds,170,2011-10-10 17:55:00
1:15 PM,74.3,47.5,39,30.12,10.0,South,10.4,19.6,N/A,,Scattered Clouds,170,2011-10-10 18:15:00
1:35 PM,74.8,46.6,37,30.11,10.0,South,9.2,-,N/A,,Scattered Clouds,170,2011-10-10 18:35:00
1:55 PM,75.0,45.0,34,30.10,10.0,South,10.4,19.6,N/A,,Clear,170,2011-10-10 18:55:00
2:15 PM,73.6,44.1,35,30.09,10.0,South,11.5,18.4,N/A,,Clear,180,2011-10-10 19:15:00
2:35 PM,73.6,46.0,37,30.08,10.0,SE,11.5,17.3,N/A,,Clear,130,2011-10-10 19:35:00
2:55 PM,73.8,46.9,38,30.07,10.0,SE,12.7,20.7,N/A,,Clear,130,2011-10-10 19:55:00
3:15 PM,73.2,46.6,39,30.06,10.0,ESE,10.4,16.1,N/A,,Clear,120,2011-10-10 20:15:00
3:55 PM,72.1,46.4,40,30.05,10.0,SE,9.2,-,N/A,,Clear,140,2011-10-10 20:55:00
4:15 PM,72.3,46.2,39,30.04,10.0,SSE,8.1,-,N/A,,Clear,150,2011-10-10 21:15:00
4:35 PM,71.4,45.5,39,30.04,10.0,SSE,8.1,-,N/A,,Clear,160,2011-10-10 21:35:00
4:55 PM,71.1,46.0,41,30.03,10.0,SSE,5.8,-,N/A,,Clear,150,2011-10-10 21:55:00
5:15 PM,70.5,47.1,43,30.03,10.0,SE,4.6,-,N/A,,Clear,140,2011-10-10 22:15:00
5:35 PM,70.2,47.7,45,30.02,10.0,SSE,4.6,-,N/A,,Clear,160,2011-10-10 22:35:00
5:55 PM,69.1,46.2,44,30.02,10.0,SSE,3.5,-,N/A,,Scattered Clouds,150,2011-10-10 22:55:00
6:15 PM,67.8,45.3,44,30.02,10.0,SSE,4.6,-,N/A,,Scattered Clouds,160,2011-10-10 23:15:00
6:35 PM,66.2,45.0,46,30.02,10.0,SSE,4.6,-,N/A,,Clear,160,2011-10-10 23:35:00
7:15 PM,64.6,45.5,50,30.02,10.0,SSE,3.5,-,N/A,,Scattered Clouds,150,2011-10-11 00:15:00
7:35 PM,64.4,45.5,50,30.02,10.0,SSE,4.6,-,N/A,,Mostly Cloudy,160,2011-10-11 00:35:00
7:55 PM,64.2,46.4,52,30.01,10.0,SSE,4.6,-,N/A,,Scattered Clouds,150,2011-10-11 00:55:00
8:15 PM,63.5,47.1,55,30.01,10.0,SSE,4.6,-,N/A,,Clear,150,2011-10-11 01:15:00
8:35 PM,63.3,47.8,57,30.01,10.0,SSE,4.6,-,N/A,,Clear,150,2011-10-11 01:35:00
8:55 PM,62.8,48.4,59,30.01,10.0,SSE,5.8,-,N/A,,Clear,160,2011-10-11 01:55:00
9:15 PM,62.4,49.1,62,30.01,10.0,SSE,8.1,-,N/A,,Clear,160,2011-10-11 02:15:00
9:35 PM,62.2,49.1,62,30.01,10.0,SSE,6.9,-,N/A,,Clear,160,2011-10-11 02:35:00
9:55 PM,61.9,48.7,62,30.01,10.0,SSE,6.9,-,N/A,,Clear,160,2011-10-11 02:55:00
10:35 PM,60.1,48.6,66,30.01,10.0,SSE,5.8,-,N/A,,Clear,160,2011-10-11 03:35:00
10:55 PM,59.4,48.6,67,30.01,10.0,South,5.8,-,N/A,,Clear,170,2011-10-11 03:55:00
11:15 PM,59.0,48.4,68,30.01,10.0,SSE,4.6,-,N/A,,Clear,160,2011-10-11 04:15:00
11:35 PM,58.6,48.4,69,30.01,10.0,South,4.6,-,N/A,,Clear,170,2011-10-11 04:35:00